This is the latest recevied weather packets stored in our database for station/object KK7MLS-13. If no packets are shown the sender has not sent any weather packets the latest 10 day(s).
| Time | Temp. | Humidity | Pressure | Rain* | Wind** | Luminosity | Snow |
|---|---|---|---|---|---|---|---|
| 1777179560 | 12.22° C | 49% | 1008.4 hPa | 0 mm | - | 0 W/m² | - |
| 1777179259 | 12.22° C | 49% | 1008.5 hPa | 0 mm | - | 0 W/m² | - |
| 1777178954 | 12.22° C | 49% | 1008.6 hPa | 0 mm | - | 0 W/m² | - |
| 1777178652 | 12.78° C | 49% | 1008.4 hPa | 0 mm | - | 0 W/m² | - |
| 1777178348 | 12.78° C | 46% | 1008.4 hPa | 0 mm | - | 0 W/m² | - |
| 1777178048 | 13.33° C | 44% | 1008.4 hPa | 0 mm | - | 0 W/m² | - |
| 1777177746 | 13.33° C | 44% | 1008.5 hPa | 0 mm | - | 0 W/m² | - |
| 1777177442 | 13.33° C | 43% | 1008.4 hPa | 0 mm | - | 0 W/m² | - |
| 1777177138 | 13.33° C | 43% | 1008.4 hPa | 0 mm | - | 0 W/m² | - |
| 1777176835 | 13.89° C | 42% | 1008.4 hPa | 0 mm | - | 0 W/m² | - |
| 1777176532 | 13.89° C | 43% | 1008.2 hPa | 0 mm | - | 0 W/m² | - |
| 1777176228 | 13.89° C | 42% | 1008.3 hPa | 0 mm | - | 0 W/m² | - |
| 1777175927 | 14.44° C | 41% | 1008.2 hPa | 0 mm | - | 0 W/m² | - |
| 1777175622 | 14.44° C | 40% | 1008.1 hPa | 0 mm | - | 0 W/m² | - |
| 1777175323 | 14.44° C | 38% | 1008.1 hPa | 0 mm | - | 0 W/m² | - |
| 1777175018 | 14.44° C | 38% | 1007.8 hPa | 0 mm | - | 0 W/m² | - |
| 1777174715 | 14.44° C | 38% | 1008 hPa | 0 mm | - | 0 W/m² | - |
| 1777174410 | 14.44° C | 36% | 1008 hPa | 0 mm | - | 0 W/m² | - |
| 1777174105 | 15° C | 37% | 1008 hPa | 0 mm | - | 0 W/m² | - |
| 1777173802 | 15° C | 36% | 1008 hPa | 0 mm | - | 0 W/m² | - |
| 1777173501 | 15.56° C | 34% | 1008.1 hPa | 0 mm | - | 1 W/m² | - |
| 1777173197 | 15.56° C | 33% | 1007.9 hPa | 0 mm | - | 1 W/m² | - |
| 1777172894 | 16.11° C | 32% | 1007.9 hPa | 0 mm | - | 2 W/m² | - |
| 1777172592 | 16.11° C | 30% | 1008 hPa | 0 mm | - | 3 W/m² | - |
| 1777172287 | 16.67° C | 31% | 1007.9 hPa | 0 mm | - | 5 W/m² | - |
* Rain latest hour (hover to see other rain measurements)
** Current wind speed in m/s (hover to see current wind gust speed)